Tracking 28052 objects as of 21-Sep-2023
HD Live streaming from Space Station
objects crossing your sky now

STARLINK-4317

Track STARLINK-4317 now!
10-day predictions
STARLINK-4317 is classified as:


NORAD ID: 53058
Int'l Code: 2022-077R
Perigee: 569.2 km
Apogee: 571.1 km
Inclination: 97.7 °
Period: 95.9 minutes
Semi major axis: 6941 km
RCS: Unknown
Launch date: July 11, 2022
Source: United States (US)
Launch site: AIR FORCE WESTERN TEST RANGE (AFWTR)
Your satellite tracking list
Your tracking list is empty




NASA's NSSDC Master Catalog

Two Line Element Set (TLE):
1 53058U 22077R   23263.82861265 -.00000181  00000-0 -94934-5 0  9999
2 53058  97.6562  83.5077 0001391  57.0775 303.0583 15.01257106 65756
Source of the keplerian elements: AFSPC